This is the latest recevied weather packets stored in our database for station/object K1PM-WX. If no packets are shown the sender has not sent any weather packets the latest 1 day(s).
| Time | Temp. | Humidity | Pressure | Rain* | Wind** | Luminosity | Snow |
|---|---|---|---|---|---|---|---|
| 1778040536 | 9.44° C | 99% | 1031 hPa | 0.76 mm | 0.45 m/s, 113° | - | - |
| 1778040236 | 9.44° C | 99% | 1031 hPa | 0.76 mm | 0.89 m/s, 113° | - | - |
| 1778039936 | 9.44° C | 99% | 1031 hPa | 0.76 mm | 1.34 m/s, 113° | - | - |
| 1778039637 | 9.44° C | 99% | 1031 hPa | 1.27 mm | 0.89 m/s, 45° | - | - |
| 1778039337 | 9.44° C | 99% | 1031 hPa | 1.27 mm | 0.89 m/s, 68° | - | - |
| 1778039037 | 9.44° C | 99% | 1031 hPa | 1.52 mm | 1.34 m/s, 45° | - | - |
| 1778038737 | 9.44° C | 99% | 1031 hPa | 1.52 mm | 0.89 m/s, 45° | - | - |
| 1778038437 | 9.44° C | 99% | 1031 hPa | 1.78 mm | 0.89 m/s, 90° | - | - |
| 1778038137 | 9.44° C | 99% | 1031 hPa | 1.78 mm | 1.34 m/s, 45° | - | - |
| 1778037836 | 9.44° C | 99% | 1032 hPa | 2.03 mm | 0.45 m/s, 45° | - | - |
| 1778037536 | 9.44° C | 99% | 1031 hPa | 1.78 mm | 0.89 m/s, 68° | - | - |
| 1778037237 | 9.44° C | 99% | 1032 hPa | 1.78 mm | 1.34 m/s, 90° | - | - |
| 1778036937 | 9.44° C | 99% | 1032 hPa | 1.52 mm | 0.45 m/s, 113° | - | - |
| 1778036636 | 9.44° C | 99% | 1031 hPa | 1.52 mm | 0.89 m/s, 113° | - | - |
| 1778036337 | 9.44° C | 99% | 1032 hPa | 1.27 mm | 0.89 m/s, 113° | - | - |
| 1778036036 | 9.44° C | 99% | 1032 hPa | 1.27 mm | 0.45 m/s, 135° | - | - |
| 1778035737 | 9.44° C | 99% | 1032 hPa | 1.02 mm | 0.89 m/s, 113° | - | - |
| 1778035436 | 9.44° C | 99% | 1032 hPa | 0.76 mm | 0.89 m/s, 90° | - | - |
| 1778035137 | 9.44° C | 99% | 1032 hPa | 0.76 mm | 0.45 m/s, 158° | - | - |
| 1778034837 | 9.44° C | 99% | 1032 hPa | 0.51 mm | 0 m/s | - | - |
| 1778034537 | 9.44° C | 99% | 1032 hPa | 0.51 mm | 0.45 m/s, 113° | - | - |
| 1778034237 | 9.44° C | 99% | 1032 hPa | 0.25 mm | 0.45 m/s, 113° | - | - |
| 1778033937 | 9.44° C | 99% | 1032 hPa | 0.25 mm | 0.89 m/s, 90° | - | - |
| 1778033636 | 9.44° C | 99% | 1032 hPa | 0.51 mm | 0 m/s | - | - |
| 1778033336 | 9.44° C | 99% | 1032 hPa | 0.51 mm | 0.45 m/s, 158° | - | - |
* Rain latest hour (hover to see other rain measurements)
** Current wind speed in m/s (hover to see current wind gust speed)